TimeEDT,TemperatureF,Dew PointF,Humidity,Sea Level PressureIn,VisibilityMPH,Wind Direction,Wind SpeedMPH,Gust SpeedMPH,PrecipitationIn,Events,Conditions,WindDirDegrees,DateUTC
12:53 AM,55.0,32.0,42,30.16,10.0,Variable,4.6,-,N/A,,Clear,0,2013-04-28 04:53:00
1:53 AM,59.0,32.0,36,30.15,10.0,SSE,10.4,-,N/A,,Clear,160,2013-04-28 05:53:00
2:53 AM,59.0,34.0,39,30.15,10.0,SSE,10.4,17.3,N/A,,Clear,160,2013-04-28 06:53:00
3:53 AM,57.0,35.1,44,30.13,10.0,Variable,4.6,-,N/A,,Clear,0,2013-04-28 07:53:00
4:53 AM,59.0,36.0,42,30.11,10.0,South,10.4,20.7,N/A,,Clear,170,2013-04-28 08:53:00
5:53 AM,59.0,37.0,44,30.10,10.0,SSE,11.5,19.6,N/A,,Clear,160,2013-04-28 09:53:00
6:53 AM,59.0,37.0,44,30.12,10.0,SSE,6.9,-,N/A,,Clear,150,2013-04-28 10:53:00
7:53 AM,60.1,39.9,47,30.13,10.0,East,4.6,-,N/A,,Clear,80,2013-04-28 11:53:00
9:53 AM,66.9,39.9,37,30.11,10.0,SSE,10.4,-,N/A,,Clear,150,2013-04-28 13:53:00
10:53 AM,68.0,37.9,33,30.09,10.0,SE,16.1,20.7,N/A,,Clear,130,2013-04-28 14:53:00
11:53 AM,70.0,39.0,32,30.07,10.0,SSE,11.5,27.6,N/A,,Clear,150,2013-04-28 15:53:00
12:53 PM,69.1,39.0,33,30.05,10.0,SSE,12.7,-,N/A,,Clear,150,2013-04-28 16:53:00
1:53 PM,66.0,39.0,37,30.05,10.0,South,18.4,32.2,N/A,,Overcast,170,2013-04-28 17:53:00
2:53 PM,63.0,41.0,45,30.06,10.0,SSE,21.9,32.2,0.00,,Overcast,160,2013-04-28 18:53:00
3:53 PM,59.0,46.0,62,30.04,10.0,SE,17.3,25.3,0.00,Rain,Light Rain,140,2013-04-28 19:53:00
4:53 PM,57.0,46.9,69,30.02,10.0,SE,16.1,25.3,0.00,Rain,Light Rain,140,2013-04-28 20:53:00
5:53 PM,55.9,46.9,72,30.01,10.0,SE,11.5,20.7,0.01,Rain,Light Rain,140,2013-04-28 21:53:00
6:53 PM,55.0,48.0,77,29.98,9.0,SE,18.4,26.5,0.00,Rain,Light Rain,140,2013-04-28 22:53:00
7:53 PM,55.9,46.0,69,29.97,10.0,Variable,5.8,18.4,0.00,,Overcast,0,2013-04-28 23:53:00
8:53 PM,55.0,46.0,72,29.96,10.0,SSE,24.2,34.5,0.00,,Overcast,160,2013-04-29 00:53:00
9:53 PM,54.0,46.0,75,29.96,10.0,SSE,18.4,34.5,N/A,,Overcast,160,2013-04-29 01:53:00
10:53 PM,53.1,45.0,74,29.95,10.0,SSE,18.4,34.5,0.00,Rain,Light Rain,160,2013-04-29 02:53:00
11:53 PM,54.0,45.0,72,29.93,10.0,SSE,19.6,26.5,0.00,,Overcast,160,2013-04-29 03:53:00